Humidity-temperature Sensor

Selected Measurement Type: Relative Humidity

 
Relative Humidity [%]     6 entries per hour
Showing data from 4/19/2015 (00:00:00 Z) to 4/18/2015 (00:01:00 Z)
Previous Next [ Day | 3-Days | 7-Days ]
First Last
Prev [ Day | 3-Days | 7-Days ] Next
First Last

Start Time:     :
End Time:     :     
Time (in GMT) :00 :50 :40 :30 :20 :10
Previous Next [ Day | 3-Days | 7-Days ]
First Last
Prev [ Day | 3-Days | 7-Days ] Next
First Last


123 => good data
MM => data is determined as missing
-- => data not received/configured
Back to Top Back to Top
4/19/2015 00:00 to 23:10 80.71 80.17 79.20 78.54 75.74 76.73
4/18/2015 23:00 to 22:10 77.74 81.98 83.41 85.35 83.08 82.31
4/18/2015 22:00 to 21:10 81.10 80.97 81.78 81.80 81.76 83.66
4/18/2015 21:00 to 20:10 85.78 86.38 86.71 86.17 87.47 87.22
4/18/2015 20:00 to 19:10 88.23 88.52 90.05 91.74 90.75 89.45
4/18/2015 19:00 to 18:10 88.81 88.30 87.99 88.54 88.25 88.15
4/18/2015 18:00 to 17:10 87.12 85.82 83.10 80.54 79.04 79.61
4/18/2015 17:00 to 16:10 79.80 80.81 81.82 83.02 81.78 81.78
4/18/2015 16:00 to 15:10 82.11 81.96 79.72 80.56 77.61 80.42
4/18/2015 15:00 to 14:10 80.75 80.64 82.15 81.08 81.63 82.73
4/18/2015 14:00 to 13:10 81.90 81.20 81.88 82.48 82.69 82.56
4/18/2015 13:00 to 12:10 82.87 82.69 83.22 82.40 81.53 81.72
4/18/2015 12:00 to 11:10 81.96 81.84 81.70 82.17 81.98 82.34
4/18/2015 11:00 to 10:10 82.05 80.89 79.47 80.21 82.11 81.28
4/18/2015 10:00 to 9:10 81.59 81.28 81.57 81.68 80.99 81.22
4/18/2015 09:00 to 8:10 81.14 80.33 80.13 80.64 80.09 80.25
4/18/2015 08:00 to 7:10 81.20 81.63 80.87 80.09 80.97 80.31
4/18/2015 07:00 to 6:10 80.46 80.95 80.89 80.64 80.29 80.25
4/18/2015 06:00 to 5:10 80.03 80.21 79.53 79.10 78.62 78.73
4/18/2015 05:00 to 4:10 78.60 79.14 80.25 80.69 80.95 81.98
4/18/2015 04:00 to 3:10 81.28 81.26 81.16 80.62 80.75 80.73
4/18/2015 03:00 to 2:10 80.81 80.42 80.38 79.84 78.99 79.39
4/18/2015 02:00 to 1:10 79.22 79.67 79.43 78.91 79.08 78.81
4/18/2015 01:00 to 0:10 77.78 77.06 76.83 76.44 75.22 75.10